THOR ABLESTAR DEB, 461

Orbit data source: Space-Track

THOR ABLESTAR DEB, 461 is space debris in LEO originally from a launch on Thu, 29 Jun 1961 UTC launched from the Air Force Eastern Test Range (AFETR). Debris objects in space refer to the collection of defunct objects orbiting the Earth. Examples of debris include non-operational satellites, rocket bodies, and fragments generated from explosions, collisions, or faulty payload assembly.

Loading next visibility...
THOR ABLESTAR DEB details
Identifier
461, 1961-015EX
Orbit
LEO
Last TLE update19 hours ago
Origin
Flag of USUSAF SSD (US)
ManufacturerUnknown
MissionSpacecraft
Bus & MotorUnknown
MassUnknown
Launch date (UTC)
1961-06-29 (64 years ago)
Launch vehicleUnknown
Launch site
Air Force Eastern Test Range (AFETR)
Object type
Payload
Rocket body
Debris
Shape & HBRUnknown
Radar Cross SectionMedium (>0.1 m² and <1 m²)

Expand to show TLE details & history

TLE from 19 hours ago
0 THOR ABLESTAR DEB
1 00461U 61015EX  25014.65006469  .00018667  00000-0  21938-2 0  9995
2 00461  67.5020 108.3463 0023914 120.0357 240.3152 14.84729104308227
Epoch: 2025-01-14T15:36Z
Definitive object data (Epoch: 2025-01-14T15:36:05.589Z)
Latitude-0.00004°
Longitude119.96928°
Altitude624.972 km
Speed7.542 km/s
True Right ascension07h 13m 23s
True Declination0° 00' 00"
Sunlit
Object was in full shadow at TLE epoch
Visualization TLE readout
Latitude3.14119°
Longitude-63.46264°
Altitude607.135 km
Speed7.561 km/s
Apparent Right ascension20h 33m 04s
Apparent Declination-19° 27' 21"
Sunlit
Object is in daylight
Visualization observer readout
Local Sidereal Time10:50:32
Azimuth65.374° ENE
Elevation-54.164°
Doppler factor1
Orbital elements
Apogee altitude629.393 km
Perigee altitude595.957 km
Semi-major axis6,990.812 km
Eccentricity0.0023914
Inclination67.502°
RAAN108.3463°
Arg. of periapsis120.0357°
True anomaly240.07748°
Mean anomaly240.3152°
Eccentric anomaly240.19631°
Mean motion3.71323 °/min
BSTAR0.0021938
Orbital period96.95 mins
Loading maneuver chart data...

THOR ABLESTAR DEB Visibility forecast

Observer location: undefined°, undefined

Span
Click to sort rows by Start time (UTC) header in descending order
Start Az.
Max El. time (UTC)
Max El. Az.
Max El.
End time (UTC)
End Az.
7 mins2025-01-15 16:23:32.558Z350.462° N2025-01-15 16:26:32.558Z46.131° ENE32.976°2025-01-15 16:30:32.558Z126.35° SE
4 mins2025-01-15 18:04:32.558Z277.529° WNW2025-01-15 18:05:32.558Z261.037° W16.835°2025-01-15 18:08:32.558Z214.304° SW
5 mins2025-01-16 06:32:32.558Z147.795° SSE2025-01-16 06:34:32.558Z114.132° SE20.709°2025-01-16 06:37:32.558Z63.641° ENE
6 mins2025-01-16 08:11:32.558Z249.823° W2025-01-16 08:14:32.558Z317.52° NNW28.886°2025-01-16 08:17:32.558Z6.895° NNE
|